Hourly Data Report for February 15, 2018

MIRAMICHI RCS
NEW BRUNSWICK

47°00'34.000" N
65°27'54.000" W
33.00 m
8100989
71744
ACQ

Download Data

Hourly Data (February 2018)
Hourly Data Report for February 15, 2018
TIME
LST
Temp Definition
°C
Dew Point Definition
°C
Rel Hum Definition
%
Precip. Amount Definition
mm

Wind Dir Definition
10's deg

Wind Spd Definition
km/h
Visibility Definition
km
Stn Press Definition
kPa
Hmdx Definition


Wind Chill Definition


Weather Definition


00:00 -2.8 -6.2 77 0.0 24 8   100.64   -6 LegendNANA
01:00 -2.9 -6.4 77 0.0 22 17   100.63   -8 LegendNANA
02:00 -3.4 -6.7 78 0.0 23 12   100.63   -8 LegendNANA
03:00 -2.8 -6.4 76 0.0 25 13   100.65   -7 LegendNANA
04:00 -4.2 -6.9 82 0.0 24 11   100.63   -9 LegendNANA
05:00 -4.6 -6.9 84 0.0 26 11   100.60   -9 LegendNANA
06:00 -5.0 -7.1 86 0.0 26 11   100.62   -10 LegendNANA
07:00 -5.7 -7.4 88 0.0 24 6   100.58   -9 LegendNANA
08:00 -5.7 -7.4 87 0.0 26 5   100.61   -8 LegendNANA
09:00 -4.8 -7.0 84 0.0 25 8   100.63   -8 LegendNANA
10:00 -1.5 -5.7 73 0.0 24 12   100.63   -6 LegendNANA
11:00 0.8 -4.8 66 0.0 24 7   100.57     LegendNANA
12:00 1.4 -3.7 69 0.0 23 10   100.47     LegendNANA
13:00 4.3 -3.1 59 0.0 24 14   100.36     LegendNANA
14:00 3.8 -2.7 63 0.0 23 14   100.25     LegendNANA
15:00 4.5 -2.7 60 0.0 23 20   100.13     LegendNANA
16:00 4.6 -2.2 62 0.0 18 11   100.01     LegendNANA
17:00 4.3 -2.2 63 0.0 15 11   99.86     LegendNANA
18:00 3.2 -2.0 69 0.0 19 9   99.90     LegendNANA
19:00 2.6 -2.0 72 0.0 14 9   99.84     LegendNANA
20:00 1.7 -1.7 78 0.0 12 9   99.72     LegendNANA
21:00 1.3 -1.5 82 0.0 10 10   99.66     LegendNANA
22:00 1.7 -2.1 76 0.0 15 9   99.59     LegendNANA
23:00 1.8 -1.1 81 0.0 18 10   99.47     LegendNANA

Notes on Data Quality.

Legend

  • E = Estimated
  • M = Missing
  • NA = Not Available*
  • [empty] = Indicates an unobserved value
Date modified: